Home   Weather   Pittsfield   Past weeks
Flag for USA

Past Weather in Pittsfield, Massachusetts, USA — Yesterday and Last 2 Weeks

Now
81 °F

Passing clouds.


Feels Like: 83 °F
Forecast: 79 / 68 °F
Wind: 6 mph from Southwest

Location: Pittsfield Municipal Airport

Current Time: Jul 16, 2019 at 8:35:26 pm

Latest Report: Jul 16, 2019 at 7:54 pm


Visibility: 10 mi

Pressure: 29.92 "Hg

Humidity: 58%

Dew Point: 65 °F

Location of PittsfieldLocation

Past Weather in Pittsfield — Graph

°F

Pittsfield Temperature Yesterday

Maximum temperature yesterday: 80 °F (at 2:54 pm)
Minimum temperature yesterday: 58 °F (at 4:54 am)
Average temperature yesterday: 67 °F

High & Low Weather Summary for the Past Weeks

 TemperatureHumidityPressure
High88 °F (Jul 4, 1:54 pm)97% (Jul 3, 3:38 am)30.18 "Hg (Jul 3, 3:38 am)
Low52 °F (Jul 8, 4:54 am)25% (Jul 5, 1:54 pm)29.64 "Hg (Jul 12, 4:54 am)
Average71 °F71%29.90 "Hg
* Reported Jul 1 6:54 pm — Jul 16 6:54 pm, Pittsfield. Weather by CustomWeather, © 2019

Note: Actual official high and low records may vary slightly from our data, if they occured in-between our weather recording intervals... More about our weather records

Advertising

Pittsfield Weather History for the Previous 24 Hours

Scroll right to see more
 ConditionsComfort  
Time TempWeatherWind HumidityBarometerVisibility
6:54 pm
Tue, Jul 16
85 °FSunny.6 mph53%29.91 "Hg10 mi
5:54 pm87 °FSunny.9 mph46%29.91 "Hg10 mi
4:54 pm87 °FSunny.9 mph45%29.92 "Hg10 mi
3:54 pm87 °FPassing clouds.7 mph43%29.94 "Hg10 mi
2:54 pm86 °FPassing clouds.7 mph42%29.95 "Hg10 mi
1:54 pm85 °FPassing clouds.5 mph42%29.97 "Hg10 mi
12:54 pm82 °FSunny.9 mph44%29.98 "Hg10 mi
11:54 am79 °FSunny.12 mph50%29.99 "Hg10 mi
10:54 am79 °FSunny.7 mph50%30.00 "Hg10 mi
9:54 am75 °FSunny.5 mph64%30.01 "Hg10 mi
8:54 am68 °FSunny.No wind73%30.03 "Hg10 mi
7:54 am63 °FSunny.No wind81%30.03 "Hg10 mi
6:54 am58 °FSunny.No wind93%30.04 "Hg7 mi
6:29 am56 °FFog.No wind93%30.10 "Hg6 mi
6:19 am55 °FFog.No wind93%30.10 "Hg4 mi
5:57 am55 °FFog.No wind93%30.10 "Hg1 mi
5:32 am54 °FFog.No wind97%30.09 "Hg0 mi
4:54 am56 °FClear.No wind90%30.01 "Hg10 mi
3:54 am56 °FClear.No wind93%30.01 "Hg8 mi
2:54 am58 °FClear.No wind90%30.01 "Hg10 mi
1:54 am59 °FClear.No wind87%30.01 "Hg10 mi
12:54 am59 °FClear.3 mph90%30.01 "Hg10 mi
11:54 pm
Mon, Jul 15
62 °FClear.No wind80%30.01 "Hg10 mi
Weather by CustomWeather, © 2019

See weather overview

LIVE PARTIAL LUNAR ECLIPSE – Watch the eclipse as it happens